Location: Buenos Aires
(34.6076°S, 58.4371°W)
Time: 18:20:30
(UTC+00:00)

ISS - Pass Details

Date: 13 October 2025
Orbit: 414 x 421 km, 51.6° (Epoch: 07 November)

Event Time Altitude Azimuth Distance (km) Brightness Sun altitude
Rises 22:02:25 0° 305° (NW) 2,365 0.8 0.0°
Reaches altitude 10° 22:04:32 10° 300° (WNW) 1,505 -0.1 -0.4°
Maximum altitude 22:07:52 55° 220° (SW) 514 -2.9 -1.1°
Drops below altitude 10° 22:11:13 10° 141° (SE) 1,516 -1.2 -1.8°
Sets 22:13:21 0° 136° (SE) 2,385 -0.2 -2.2°
